Location: Central Coast
(33.3208°S, 151.2336°E)
Time: 14:13:00
(UTC+10:00)

Vanguard 3 - Visible Passes

Search period start: 21 June 2018 00:00
Search period end: 01 July 2018 00:00
Orbit: 508 x 3264 km, 33.3° (Epoch: 20 June)

Date Brightness Start Highest point End Pass type
(mag) Time Alt. Az. Time Alt. Az. Time Alt. Az.
21 Jun 8.2 19:00:36 10° W 19:11:19 61° NNW 19:13:40 41° NE visible
22 Jun 8.6 17:43:15 10° W 17:57:01 81° NNW 18:04:20 10° ENE visible
22 Jun 9.0 20:00:56 10° W 20:08:52 32° NW 20:08:57 32° NW visible
23 Jun 8.7 18:43:43 10° WSW 18:55:19 56° NNW 18:59:41 24° NE visible
23 Jun 10.3 21:03:11 10° WNW 21:04:18 11° WNW 21:04:18 11° WNW visible
24 Jun 8.9 17:26:09 10° W 17:40:55 77° NNW 17:48:56 10° ENE visible
24 Jun 9.2 19:44:22 10° W 19:52:47 29° NW 19:55:07 24° N visible
25 Jun 9.1 18:26:45 10° WSW 18:39:11 52° NNW 18:45:59 11° NE visible
25 Jun 10.2 20:47:57 10° WNW 20:49:34 11° NW 20:50:37 10° NW visible
26 Jun 9.2 17:08:58 10° W 17:24:42 73° NNW 17:33:23 10° ENE visible
26 Jun 9.7 19:27:44 10° W 19:36:34 27° NW 19:41:35 13° N visible
27 Jun 9.5 18:09:42 10° WSW 18:22:56 48° NW 18:30:31 10° NE visible
28 Jun 10.1 19:11:04 10° W 19:20:14 25° NW 19:26:20 10° N visible
29 Jun 9.9 17:52:37 10° WSW 18:06:31 45° NW 18:14:44 10° NNE visible
30 Jun 10.3 18:54:24 10° W 19:03:46 23° NW 19:10:12 10° N visible
